Regional Weather Roundup
Issued by NWS

Home | Current Version | Previous Version | Graphics & Text | Print | Product List | Glossary On
Versions: 1 2 3 4 5 6 7 8 9 10 11 12 13 14 15 16 17 18 19 20 21 22 23 24 25 26 27 28 29 30 31 32 33 34 35 36 37 38 39 40 41 42 43 44 45 46 47 48 49 50
000
ASUS45 KSLC 160610
RWRUT

UTAH REGIONAL WEATHER ROUNDUP
NATIONAL WEATHER SERVICE SALT LAKE CITY UT
1200 AM MDT TUE SEP 16 2014

UTZ001>011-023>025-160700-

NORTHERN UTAH

CITY           SKY/WX    TMP DP  RH WIND       PRES   REMARKS
HILL AFB       CLEAR     68  39  34 E17       30.12S
LOGAN          CLEAR     55  47  74 W3        30.12R
OGDEN          CLEAR     68  40  35 S10       30.09S
PROVO AIRPORT  CLEAR     63  45  51 CALM      30.13R
SALT LAKE CITY PTCLDY    70  39  32 S9        30.08R
VERNAL         CLEAR     61  42  49 W6        30.19R
WENDOVER       PTCLDY    70  36  28 W5        30.08R
HEBER CITY     CLEAR     52  41  66 SE3       30.22R
WEST JORDAN    CLEAR     64  39  39 S6        30.12R

$$

UTZ012>022-026-027-160700-

SOUTHERN UTAH

CITY           SKY/WX    TMP DP  RH WIND       PRES   REMARKS
BRYCE CANYON   CLEAR     49  40  71 W3        30.38R
CEDAR CITY     CLEAR     67  39  35 SE3       30.19R
MILFORD        CLEAR     65  39  38 SW5       30.14R
MOAB/CYNLANDS  CLEAR     65  38  36 CALM      30.10S
PRICE          CLEAR     65  35  33 N7        30.22S
ST GEORGE      CLEAR     81  45  28 CALM      29.99S
KANAB            N/A     66  37  34 N10       30.18S

$$

REGIONAL REPORTS     COLORADO/ARIZONA

CITY           SKY/WX    TMP DP  RH WIND       PRES   REMARKS
CRAIG, CO      CLEAR     48  41  76 CALM      30.28R
GRAND JUNCTION CLEAR     64  42  44 S8        30.16R
RIFLE          CLEAR     57  41  55 CALM      30.25R
MONTROSE       CLEAR     60  41  49 SE7       30.26S
CORTEZ         CLEAR     55  43  63 NE6       30.27R
PAGE, AZ       CLEAR     79  40  24 SW5       30.10R
GRAND CANYON   CLEAR     51  43  74 CALM      30.30F
KINGMAN        CLEAR     73  56  54 SE6       30.02S
FLAGSTAFF      PTCLDY    54  46  74 NE5       30.34R

$$

REGIONAL REPORTS    NEVADA/IDAHO/WYOMING

CITY           SKY/WX    TMP DP  RH WIND       PRES   REMARKS
LAS VEGAS, NV  CLEAR     89  46  22 S3        29.86R
ELY            PTCLDY    65  38  36 S14       30.22S
ELKO           CLEAR     63  28  26 E3        30.10R
POCATELLO, ID  CLEAR     63  34  33 CALM      30.10R
BURLEY         PTCLDY    56  44  64 SW3       30.05S
EVANSTON, WY   CLEAR     58  32  37 SE9       30.32R
ROCK SPRINGS   PTCLDY    60  34  37 S5        30.29R

$$


USA.gov is the U.S. government's official web portal to all federal, state and local government web resources and services.